[[{"header":{"parameterUnit":"m.s-1","parameterCategory":1,"la1":30.2991,"la2":30.254,"lo1":-89.0895,"lo2":-89.0444,"dy":0.0017,"dx":0.0017,"nx":28,"ny":28,"refTime":"2025-07-10T03:00:00:Z","depth":0,"parameterNumber":2,"parameterNumberName":"U-component_of_WINDS"},"data":[0,0,0,0,0,0,0,0,0,0,0,0,0,0,0,0,0,0,0,0,0,0,0,0,0,0,0,0,0,0,0,0,0,0,0,0,0,0,0,0,0,0,0,0,0,0,0,0,0,0,0,0,0,0,0,0,0,0,3.7695,3.7696,0,3.7825,3.7827,3.7828,3.7742,3.7738,3.7734,3.773,3.7867,3.7874,3.7881,0,0,0,0,0,0,0,0,0,0,0,0,0,3.7372,3.7378,3.7695,3.7697,3.7698,3.7825,3.7827,3.7829,3.7743,3.7738,3.7733,3.7728,3.7864,3.7873,3.7882,0,0,0,0,0,0,0,0,0,0,0,0,0,3.7509,3.738,3.7695,3.767,3.767,3.7825,3.7827,3.7829,3.7744,3.7738,3.7732,3.7726,3.7861,3.7872,3.7883,3.807,0,0,3.7917,3.7921,0,0,0,0,0,0,0,0,3.7501,3.752,3.7672,3.7672,3.7672,3.7761,3.7763,3.791,3.7745,3.7716,3.773,3.7723,3.7837,3.7849,3.7887,3.8077,3.8082,3.7918,3.7924,3.7929,3.7932,0,0,0,0,0,0,0,3.7492,3.7514,3.7747,3.7675,3.7674,3.7653,3.7666,3.7791,3.7808,3.7718,3.7712,3.7728,3.7835,3.7877,3.7889,3.8084,3.7917,3.7927,3.7934,3.7938,3.8432,3.8438,0,0,0,0,0,0,3.7484,3.7507,3.7742,3.775,3.757,3.7664,3.7678,3.7739,3.7806,3.7811,3.7733,3.7724,3.7861,3.7877,3.7894,3.8116,3.7929,3.7939,3.7946,3.8425,3.8433,3.844,0,0,0,0,0,0,3.7477,3.7506,3.7737,3.7627,3.7655,3.7676,3.7744,3.7744,3.7785,3.7818,3.7821,3.7772,3.7857,3.7878,3.8026,3.812,3.7944,3.7954,3.8418,3.8428,3.8437,3.8563,0,0,0,0,0,0,3.7468,3.7504,3.7575,3.7629,3.7661,3.7868,3.775,3.7751,3.7804,3.7793,3.7855,3.786,3.7854,3.801,3.8037,3.8132,3.7963,3.8409,3.8422,3.8434,3.8551,3.8576,3.8598,0,0,0,0,0,3.7457,3.7607,3.7579,3.7608,3.7751,3.7873,3.7891,3.788,3.7812,3.7884,3.7904,3.7858,3.8105,3.8026,3.8056,3.8155,3.8403,3.8419,3.8433,3.854,3.8571,3.8597,0,0,0,0,0,0,3.7565,3.7614,3.7584,3.7755,3.781,3.7858,3.7949,3.7914,3.799,3.7977,3.796,3.7975,3.8129,3.8157,3.8068,3.8338,3.8243,3.8265,3.8315,3.8345,3.8368,3.8358,3.7972,0,0,0,0,0,3.7608,3.7703,3.774,3.7888,3.7917,3.7928,3.7981,3.7968,3.8025,3.8048,3.8079,3.8137,3.8227,3.8287,3.8373,3.8554,3.8566,3.8637,3.866,3.8679,3.8698,3.8794,3.8825,3.8488,3.8488,3.8488,0,0,3.7699,3.7738,3.7799,3.7911,3.7952,3.805,3.7949,3.8058,3.8131,3.8065,3.8206,3.8231,3.8294,3.8459,3.8533,3.8486,3.8793,3.8698,3.8713,3.8721,3.8812,3.8844,3.8872,3.8498,3.8496,3.8495,0,0,3.7915,3.7954,3.8081,3.8123,3.8186,3.8192,3.8223,3.8276,3.8289,3.843,3.8382,3.8469,3.8625,3.8671,3.8716,3.8947,3.8906,3.8975,3.9098,3.9192,3.9218,3.9242,3.9323,3.9353,3.8993,3.8994,3.8994,0,3.8021,3.8167,3.815,3.8262,3.8312,3.8256,3.8383,3.8426,3.8514,3.855,3.8496,3.869,3.8728,3.8902,3.8958,3.8996,3.903,3.8968,3.9215,3.9239,3.9261,3.9338,3.9369,3.9002,3.9001,3.9,3.8999,0,3.8293,3.8395,3.849,3.8574,3.8635,3.8755,3.8756,3.8819,3.88,3.8811,3.8955,3.8999,3.9091,3.9131,3.9114,3.9302,3.9271,3.9217,3.9121,3.9301,3.9373,3.9403,3.9013,3.901,3.9008,3.9006,0,0,3.8583,3.8654,3.869,3.8726,3.8791,3.8869,3.8985,3.9074,3.9128,3.919,3.9287,3.9419,3.9369,3.9419,3.9406,3.9489,3.9667,3.9424,3.9425,3.9467,3.9876,3.9916,3.9951,3.9641,3.9646,3.9651,3.987,0,3.8802,3.9003,3.8991,3.918,3.9273,3.922,3.932,3.9371,3.9384,3.9465,3.948,3.9574,3.9501,3.953,3.9609,3.9629,3.9749,3.9613,3.973,3.9735,3.9716,3.9989,4.0032,4.0238,3.9899,3.9904,3.9907,0,3.9085,3.9155,3.9353,3.9401,3.944,3.9531,3.961,3.9688,3.9744,3.9747,3.9802,3.9775,3.9892,3.9793,3.9953,3.9861,3.9908,3.9925,3.9932,3.9943,3.9832,4.0006,4.0303,4.0334,3.9952,3.9948,3.9945,0,3.9275,3.9419,3.9555,3.9589,3.9649,3.9714,3.9742,3.9791,3.9844,3.9914,3.9948,4.003,4.0076,4.014,4.0136,4.0064,4.0298,4.0199,4.0305,4.0305,4.0357,4.0353,4.0665,4.0388,4.0387,4.0387,4.0386,0,3.9521,3.9644,3.9641,3.9726,3.9862,3.9846,3.9981,4.0002,4.0046,4.0133,4.0092,4.0175,4.0164,4.0247,4.0245,4.0377,4.0398,4.0404,4.0402,4.0408,4.0407,4.0439,4.0424,4.0395,4.0393,4.0392,4.039,0,3.9756,3.976,3.9905,3.9948,3.9962,4.0061,4.0098,4.0178,4.0186,4.0297,4.0322,4.0337,4.0432,4.0434,4.0544,4.0542,4.0704,4.0686,4.0685,4.0681,4.0786,4.0776,4.1128,4.1173,4.0868,4.0871,4.0873,0,3.9913,4.0006,4.0059,4.0114,4.0146,4.0235,4.0288,4.0275,4.0333,4.0401,4.0473,4.0564,4.0636,4.0791,4.0812,4.0895,4.0878,4.0996,4.0891,4.0893,4.0879,4.0873,4.0882,4.1017,4.102,4.1023,4.1025,0,4.0191,4.0187,4.0265,4.0344,4.0408,4.047,4.0527,4.0574,4.0567,4.0634,4.073,4.0786,4.0897,4.0988,4.1068,4.1096,4.106,4.1058,4.1086,4.1093,4.1088,4.1091,4.074,4.105,4.1047,4.1046,4.1044,4.1043,4.0391,4.0471,4.0519,4.0607,4.0648,4.0702,4.0778,4.0795,4.0875,4.0963,4.0951,4.1058,4.1109,4.1212,4.1248,4.1331,4.1291,4.1332,4.1343,4.1353,4.1364,4.1075,4.1346,4.1345,4.1345,4.1344,4.1344,0,4.0665,4.0693,4.0774,4.0854,4.0923,4.0881,4.0941,4.1002,4.1096,4.1146,4.1217,4.1327,4.1414,4.144,4.1525,4.1586,4.1571,4.1609,4.1604,4.1611,4.1396,4.1363,4.1619,4.1619,4.1619,4.1619,4.1619,4.1619,4.0816,4.0948,4.095,4.1101,4.1128,4.1231,4.1269,4.1318,4.1357,4.1481,4.1553,4.1569,4.1609,4.1696,4.1774,4.1779,4.1812,4.1856,4.1855,4.1654,4.1626,4.16,4.1568,4.1863,4.1864,4.2062,4.2064,4.2065]},{"header":{"parameterUnit":"m.s-1","parameterCategory":1,"la1":30.2991,"la2":30.254,"lo1":-89.0895,"lo2":-89.0444,"dy":0.0017,"dx":0.0017,"nx":28,"ny":28,"refTime":"2025-07-10T03:00:00:Z","depth":0,"parameterNumber":3,"parameterNumberName":"V-component_of_WINDS"},"data":[0,0,0,0,0,0,0,0,0,0,0,0,0,0,0,0,0,0,0,0,0,0,0,0,0,0,0,0,0,0,0,0,0,0,0,0,0,0,0,0,0,0,0,0,0,0,0,0,0,0,0,0,0,0,0,0,0,0,0.0937,0.0936,0,0.0884,0.0883,0.0882,0.0818,0.0817,0.0816,0.0815,0.076,0.076,0.076,0,0,0,0,0,0,0,0,0,0,0,0,0,0.0982,0.0982,0.0937,0.0936,0.0936,0.0884,0.0883,0.0882,0.0818,0.0817,0.0816,0.0814,0.0761,0.076,0.0759,0,0,0,0,0,0,0,0,0,0,0,0,0,0.0949,0.0981,0.0937,0.0897,0.0893,0.0884,0.0883,0.0882,0.0818,0.0817,0.0815,0.0814,0.0761,0.076,0.0759,0.0785,0,0,0.0757,0.0757,0,0,0,0,0,0,0,0,0.0951,0.0947,0.0904,0.09,0.0895,0.0856,0.0879,0.085,0.0819,0.0847,0.0815,0.0813,0.0793,0.079,0.0783,0.0782,0.078,0.0757,0.0757,0.0756,0.0756,0,0,0,0,0,0,0,0.0953,0.0949,0.0916,0.0903,0.0898,0.0882,0.0875,0.0873,0.0829,0.0844,0.0839,0.0834,0.0791,0.0784,0.0781,0.0779,0.0757,0.0756,0.0756,0.0756,0.0795,0.0797,0,0,0,0,0,0,0.0962,0.0952,0.0918,0.0914,0.092,0.0882,0.0875,0.087,0.0829,0.0821,0.0835,0.0831,0.0786,0.0782,0.0779,0.0806,0.0756,0.0755,0.0755,0.0794,0.0795,0.0797,0,0,0,0,0,0,0.0963,0.0959,0.092,0.0932,0.0925,0.0883,0.0878,0.087,0.0863,0.0822,0.0814,0.0837,0.0785,0.078,0.0784,0.0803,0.0755,0.0754,0.0792,0.0794,0.0796,0.086,0,0,0,0,0,0,0.0965,0.096,0.097,0.0932,0.0925,0.0926,0.0879,0.087,0.0862,0.0856,0.0821,0.0814,0.0783,0.0785,0.0783,0.0801,0.0754,0.079,0.0793,0.0796,0.0856,0.0864,0.0871,0,0,0,0,0,0.0966,0.099,0.0971,0.0967,0.0936,0.0927,0.0923,0.0887,0.0864,0.0873,0.0846,0.0815,0.0801,0.0786,0.0783,0.0801,0.0789,0.0792,0.0795,0.0853,0.0863,0.0871,0,0,0,0,0,0,0.1032,0.0985,0.0962,0.0975,0.0955,0.0916,0.0927,0.0898,0.0885,0.088,0.0836,0.0828,0.0837,0.0819,0.0803,0.0823,0.079,0.0793,0.0835,0.0844,0.0851,0.0856,0.0753,0,0,0,0,0,0.1047,0.1044,0.1003,0.1018,0.1009,0.097,0.0964,0.0938,0.0916,0.0907,0.0881,0.0861,0.0851,0.0847,0.0836,0.0853,0.0844,0.0864,0.0871,0.0878,0.0881,0.0888,0.0896,0.0808,0.0808,0.0808,0,0,0.108,0.1054,0.1055,0.103,0.1012,0.1009,0.0963,0.0962,0.0959,0.0907,0.0909,0.0889,0.0863,0.0873,0.0876,0.0858,0.0903,0.0882,0.0887,0.0887,0.0892,0.09,0.0908,0.0811,0.081,0.081,0,0,0.1138,0.1118,0.1128,0.111,0.1083,0.1056,0.1059,0.1023,0.1008,0.1008,0.0969,0.0964,0.095,0.0933,0.0922,0.0972,0.0943,0.097,0.101,0.1017,0.1024,0.103,0.1047,0.1054,0.0973,0.0973,0.0973,0,0.1183,0.1177,0.1137,0.1138,0.1128,0.108,0.1089,0.1074,0.1045,0.1039,0.1019,0.0999,0.0978,0.0983,0.0995,0.0988,0.0989,0.0974,0.1026,0.1032,0.1036,0.1053,0.106,0.0977,0.0976,0.0976,0.0976,0,0.1232,0.1229,0.124,0.1212,0.1203,0.1209,0.1169,0.1165,0.1139,0.1114,0.1115,0.1088,0.1071,0.107,0.1045,0.1071,0.1061,0.1034,0.1,0.1049,0.1064,0.1069,0.0982,0.0981,0.0979,0.0979,0,0,0.1332,0.1281,0.1286,0.1272,0.1238,0.1234,0.1236,0.1219,0.1216,0.1197,0.1198,0.1186,0.1161,0.1149,0.1121,0.1127,0.1168,0.1099,0.1098,0.1113,0.1194,0.1215,0.1223,0.1147,0.1148,0.1149,0.1196,0,0.1384,0.1386,0.1349,0.1361,0.1357,0.131,0.1312,0.1291,0.1267,0.126,0.1233,0.1226,0.1193,0.1186,0.1189,0.1162,0.1183,0.1158,0.1148,0.1148,0.1156,0.123,0.1252,0.1298,0.1202,0.1203,0.1203,0,0.1445,0.1429,0.1441,0.1405,0.1401,0.1404,0.1385,0.1378,0.1353,0.1335,0.1321,0.1289,0.1288,0.1255,0.1253,0.1237,0.123,0.1215,0.1216,0.1215,0.1179,0.1231,0.1312,0.1319,0.1212,0.1211,0.1211,0,0.1517,0.1498,0.1502,0.1492,0.145,0.1453,0.1435,0.1408,0.14,0.1382,0.1376,0.1359,0.135,0.1337,0.1301,0.128,0.1303,0.1267,0.1288,0.1289,0.1296,0.1296,0.1377,0.1291,0.1291,0.1291,0.129,0,0.1579,0.1588,0.1533,0.1536,0.1544,0.1501,0.1511,0.1488,0.1464,0.1461,0.142,0.1418,0.137,0.1362,0.1334,0.1336,0.1332,0.1317,0.131,0.1321,0.1323,0.1317,0.1313,0.1292,0.1292,0.1292,0.1291,0,0.1661,0.1625,0.1626,0.1586,0.1575,0.1583,0.1548,0.1549,0.1522,0.1519,0.1516,0.1474,0.1462,0.1424,0.1404,0.1385,0.1396,0.1381,0.1405,0.14,0.1423,0.1421,0.1503,0.1512,0.142,0.1421,0.1422,0,0.1703,0.1709,0.1669,0.1664,0.1648,0.1641,0.1632,0.1589,0.1581,0.1552,0.1556,0.1541,0.1527,0.1511,0.1478,0.1462,0.1447,0.1476,0.1444,0.1455,0.1447,0.1447,0.1448,0.1484,0.1485,0.1486,0.1487,0,0.1783,0.1764,0.1753,0.1735,0.1725,0.1709,0.169,0.1688,0.1641,0.1634,0.1622,0.1611,0.1589,0.1575,0.1553,0.1534,0.1503,0.1497,0.1501,0.1513,0.1527,0.152,0.1424,0.1496,0.1495,0.1494,0.1494,0.1493,0.1846,0.1849,0.1821,0.1809,0.179,0.1773,0.1772,0.1744,0.1733,0.1713,0.1688,0.1679,0.1651,0.1618,0.1602,0.1593,0.1576,0.1582,0.1584,0.1586,0.1591,0.1528,0.1589,0.1589,0.1589,0.1588,0.1588,0,0.1923,0.1903,0.1892,0.1867,0.1858,0.1828,0.1805,0.18,0.1792,0.1769,0.1756,0.1741,0.1727,0.1693,0.1675,0.1674,0.1659,0.1671,0.1671,0.1667,0.1608,0.1606,0.1684,0.1684,0.1684,0.1684,0.1684,0.1684,0.1962,0.1965,0.1943,0.1935,0.1914,0.1905,0.1894,0.1878,0.186,0.1845,0.1833,0.1811,0.1783,0.1762,0.1747,0.1737,0.1733,0.1749,0.1735,0.168,0.1671,0.1663,0.1661,0.1749,0.1749,0.1795,0.1795,0.1796]}]]